{"data":{"norad_id":54103,"intl_designator":"2022-136BE","name":"STARLINK-5200","alt_names":[],"object_type":"PAYLOAD","status":"ACTIVE","operator":null,"country":"US","launch_date":"2022-10-20","launch_site_code":"AFETR","launch_vehicle":null,"mission":null,"orbit_class":"UNKNOWN","rcs_meters":null,"size_class":null,"mass_kg":null,"dimensions":null,"purposes":["comms"],"wikipedia_slug":null,"has_3d_model":false,"image_url":null,"decayed_at":null,"tle_current":{"epoch":"2026-05-24T20:06:29.657664Z","epoch_age_seconds":85130,"freshness":"FRESH","line1":"1 54103U 22136BE  26144.83784326  .00008929  00000+0  57903-3 0  9999","line2":"2 54103  53.2140 332.0631 0001418  82.7920 277.3233 15.08797959198768","mean_motion":15.08797959,"eccentricity":0.0001418,"inclination_deg":53.214,"raan_deg":332.0631,"arg_perigee_deg":82.792,"mean_anomaly_deg":277.3233,"bstar":0.00057903,"rev_number":19876,"period_min":95.440213940533,"perigee_km":538.89092080492,"apogee_km":540.85286812739,"semimajor_km":6918.0088944662,"source":"CELESTRAK","updated_at":"2026-05-25T13:38:17.658255Z"}}}